www.pogodaiklimat.ru

Погода и климат >> Архив погоды >> Туркменистан >> Елетен


ПОГОДА в Елетене

  • Прогноз погоды в Елетене
  • Монитор погоды в Елетене

АРХИВ ПОГОДЫ в Елетене

Время (UTC), дата Ветер
(напр.,м/с)
 
Видим.   Явления Облачность Т
(С)
Тd
(С)
f
(%)
Тe
(С)
Тes
(С)
Комфортность P
(гПа)
Po
(гПа)
Тmin
(С)
Tmax
(С)
R
(мм)
R24
(мм)
S
(см)
18 16.08 СЗ 2 4000 м ясно +20.4 +12.0 59 +23 +23 комфорт 1011.1 981.0 +31.2
21 16.08 штиль 0 4000 м ясно +19.2 +9.8 54 +20 +20 1011.4 981.2
00 17.08 штиль 0 4000 м ясно +14.8 +12.1 84 +15 +15 1011.9 981.1
03 17.08 штиль 0 4000 м ясно +18.4 +11.9 66 +19 +23 1011.9 981.6 +13.8
06 17.08 С 2 4000 м ясно +28.4 +8.6 29 +28 +43 жарко 1011.0 981.7 +13.8
09 17.08 СВ 2 4000 м ясно +31.6 +8.2 23 +30 +47 жарко 1009.5 980.5
12 17.08 СВ 2 4000 м ясно +32.6 +7.7 21 +31 +36 жарко 1007.9 979.0
15 17.08 СВ 2 4000 м ясно +29.2 +8.2 27 +29 +29 жарко 1007.9 978.8 +32.6
18 17.08 штиль 0 4000 м ясно +20.6 +10.7 53 +22 +22 комфорт 1010.0 980.0 +32.6
21 17.08 штиль 0 4000 м ясно +18.1 +12.3 69 +18 +18 1010.5 980.2
00 18.08 штиль 0 4000 м ясно +15.7 +10.9 73 +16 +16 1010.8 980.2
03 18.08 штиль 0 4000 м ясно +19.4 +12.3 63 +21 +24 комфорт 1012.2 982.0 +14.9
06 18.08 С 2 4000 м ясно +30.3 +9.3 27 +30 +45 жарко 1011.8 982.7 +14.9
09 18.08 СЗ 6 4000 м ясно +32.4 +8.5 23 +31 +38 жарко 1011.0 982.1
12 18.08 С 6 4000 м ясно +33.3 +8.9 22 +32 +34 жарко 1010.1 981.2
15 18.08 С 2 4000 м ясно +29.2 +5.9 23 +28 +28 жарко 1011.0 981.7 +33.3
18 18.08 С 2 4000 м ясно +24.9 +6.7 31 +25 +25 комфорт 1012.3 982.6 +33.3
21 18.08 С 2 4000 м ясно +20.1 +7.4 44 +22 +22 комфорт 1012.2 982.0
00 19.08 С 2 4000 м ясно +17.2 +8.2 55 +18 +18 1012.3 982.2
03 19.08 С 2 4000 м ясно +17.9 +11.1 64 +18 +21 1014.2 983.7 +15.8
06 19.08 С 2 4000 м ясно +29.5 +12.3 35 +31 +45 жарко 1013.0 983.7 +15.8
09 19.08 С 6 4000 м ясно +33.5 +6.7 19 +32 +38 жарко 1011.6 982.7
12 19.08 СЗ 4 4000 м ясно +34.0 +7.0 19 +32 +36 жарко 1010.4 981.5
15 19.08 штиль 0 4000 м ясно +28.5 +9.3 30 +28 +28 жарко 1011.4 982.1 +34.2
18 19.08 штиль 0 4000 м ясно +22.9 +11.3 48 +25 +25 комфорт 1013.6 983.6 +34.2
21 19.08 штиль 0 4000 м ясно +19.7 +11.1 58 +21 +21 комфорт 1012.9 982.7
00 20.08 штиль 0 4000 м ясно +16.9 +12.2 74 +17 +17 1012.9 982.3
03 20.08 штиль 0 4000 м ясно +19.5 +9.5 52 +20 +24 1014.2 983.9 +16.9
06 20.08 С 2 4000 м ясно +30.4 +10.7 30 +31 +45 жарко 1013.8 984.6 +16.9
09 20.08 СЗ 2 4000 м ясно +33.6 +8.1 21 +32 +49 жарко 1012.0 983.1
12 20.08 С 4 4000 м ясно +34.0 +4.3 16 +31 +35 жарко 1011.0 982.1
15 20.08 СЗ 2 4000 м ясно +29.6 +8.9 27 +29 +29 жарко 1011.3 982.1 +34.4
18 20.08 штиль 0 4000 м ясно +21.7 +14.6 64 +25 +25 комфорт 1012.0 982.1 +34.4
21 20.08 штиль 0 4000 м ясно +19.6 +12.1 62 +21 +21 комфорт 1011.4 981.2
00 21.08 штиль 0 4000 м ясно +18.1 +9.8 58 +18 +18 1011.3 980.8
03 21.08 С 2 4000 м ясно +20.2 +9.0 48 +22 +25 комфорт 1011.5 981.4 +17.0
06 21.08 С 2 4000 м ясно +30.0 +9.0 27 +29 +44 жарко 1011.8 982.6 +17.0
09 21.08 С 4 4000 м ясно +35.2 +8.6 20 +34 +45 очень
жарко
1009.4 980.7
12 21.08 С 4 4000 м ясно +35.6 +9.2 20 +34 +38 очень
жарко
1007.9 979.3
15 21.08 С 2 4000 м ясно +32.8 +7.7 21 +31 +31 жарко 1008.4 979.5 +35.8
18 21.08 штиль 0 4000 м ясно +25.1 +11.3 42 +26 +26 жарко 1009.7 980.2 +35.8
21 21.08 штиль 0 4000 м ясно +21.8 +13.7 60 +25 +25 комфорт 1008.6 978.8
00 22.08 штиль 0 4000 м ясно +19.4 +12.4 64 +21 +21 комфорт 1009.1 979.0
03 22.08 штиль 0 4000 м ясно +22.4 +13.0 55 +25 +29 комфорт 1009.8 980.0 +18.3
06 22.08 С 2 4000 м ясно +32.8 +15.1 34 +35 +49 душно 1009.0 980.2 +18.3
09 22.08 С 4 4000 м ясно +36.1 +11.4 23 +36 +47 очень
жарко
1007.3 978.8
12 22.08 С 4 4000 м ясно +36.8 +9.9 20 +36 +39 очень
жарко
1006.2 977.7
15 22.08 С 2 4000 м ясно +31.8 +13.6 33 +33 +33 жарко 1006.6 977.7 +36.8
03 23.08 С 2 4000 м 4/0
[Ac trans]
+22.2 +12.5 54 +25 +27 комфорт 1009.6 979.8 +18.5

 

Местоположение метеостанции Елетен (Марыйский велаят, Туркменистан): широта 37.30 долгота 62.42 высота над уровнем моря 259 м.

В архиве по умолчанию представлена погода в Елетене за последнюю неделю. Архивные данные за месяц целиком и за предыдущие месяцы, начиная с января 2011 года, Вы можете получить, выбрав интересующий диапазон дат из раскрывающегося списка и нажав кнопку "Ввод!".


*Определитесь, кто Вы:
робот инопланетянин человек

Внимание! Время в таблицах - всемирное. Для получения местного времени необходимо прибавить поправку, которая равна 5 ч.

Смотрите также архив погоды в соседних городах и на ближайших метеорологических станциях:

Погода в Байрамалы (Ахалский велаят, Туркменистан) (40 км)
Погода в Багтыярлыке (Марыйский велаят, Туркменистан) (93 км)
Погода в Сарагте (Ахалский велаят, Туркменистан) (137 км)
Погода в Серахсе (Иран) (140 км)
Погода в Тагтабазаре (Марыйский велаят, Туркменистан) (157 км)
Погода в Теджене (Ахалский велаят, Туркменистан) (168 км)
Погода в Бурдалыке (Лебапский велаят, Туркменистан) (215 км)
Погода в Туркменабаде (Лебапский велаят, Туркменистан) (223 км)
Погода в Серхетабаде (Марыйский велаят, Туркменистан) (225 км)
Погода в Каке (Ахалский велаят, Туркменистан) (247 км)

Пояснения к столбцам:

Ветер - указаны скорость ветра в м/с - средняя за 10 мин, порывы в срок и между сроками (в фигурных скобках) и направление, откуда дует ветер: С - северный, СВ - северо-восточный, В - восточный, ЮВ - юго-восточный, Ю - южный, ЮЗ - юго-западный, З - западный, СЗ - северо-западный.
Видимость - горизонтальная дальность видимости в метрах или километрах. При видимости от 1 до 10 км при отсутствии осадков обычно наблюдается дымка, при ухудшении видимости до 1 км и менее - туман. В сухую погоду видимость может ухудшаться дымом, пылью или мглою.
Явления - указаны атмосферные явления, наблюдавшиеся в срок или в последний час перед сроком; фигурными скобками обозначены явления, наблюдавшиеся между сроками (за 1-3 часа до срока); квадратными скобками обозначены град или гололедные отложения с указанием их диаметра в мм.
Облачность - указаны через наклонную черту общая и нижняя облачность в баллах и высота нижней границы облаков в метрах; квадратными скобками обозначены формы облаков: Ci - перистые, Cs - перисто-слоистые, Cc - перисто-кучевые, Ac - высококучевые, As - высокослоистые, Sc - слоисто-кучевые, Ns - слоисто-дождевые, Cu - кучевые, Cb - кучево-дождевые. Подробнее классификацию облаков см. в Атласе облаков (PDF).
T - Температура воздуха - температура, измеренная на высоте 2 м над землей.
Td - Температура точки росы - температура, при понижении до которой содержащийся в воздухе водяной пар достигнет насыщения.
f - Относительная влажность воздуха - влажноcть воздуха, измеренная на высоте 2 м над землей.
Te - Эффективная температура - температура, которую ощущает одетый по сезону человек в тени. Характеристика душности погоды. При расчете учитывается влияние влажности воздуха и скорости ветра на теплоощущения человека.
Tes - Эффективная температура на солнце - температура, которую ощущает человек, с поправкой на солнечный нагрев. Характеристика знойности погоды. Зависит от высоты солнца над горизонтом, облачности и скорости ветра. Ночью, в пасмурную погоду, а также при ветре 12 м/с и более поправка равна нулю.
P - Атмосферное давление - приведенное к уровню моря атмосферное давление.
Po - Атмосферное давление - измеренное на уровне метеостанции атмосферное давление.
Tmin - Минимальная температура - минимум температуры воздуха на высоте 2 м над землей.
Tmax - Максимальная температура - максимум температуры воздуха на высоте 2 м над землей.
R - Количество осадков - Количество выпавших осадков за период времени, мм. При наведении курсора мыши на число - период времени, за который выпало указанное количество осадков.
R24 - Количество осадков - Количество выпавших осадков за 24 часа, мм.
S - Снежный покров - Высота снежного покрова, см. При наведении курсора мыши на число - состояние снежного покрова и степень покрытия местности в баллах.